Regional Weather Roundup
Issued by NWS Midland/Odessa, TX

Home | Current Version | Previous Version | Text Only | Print | Product List | Glossary On
Versions: 1 2 3 4 5 6 7 8 9 10 11 12 13 14 15 16 17 18 19 20 21 22 23 24 25 26 27 28 29 30 31 32 33 34 35 36 37 38 39 40 41 42 43 44 45 46 47 48 49 50
000
ASUS44 KMAF 251810
RWRMAF
MIDLAND AREA WEATHER ROUNDUP
NATIONAL WEATHER SERVICE MIDLAND TX
100 PM CDT MON JUL 25 2016

...IN SOUTHWEST TEXAS AND SOUTHEAST NEW MEXICO...

CITY           SKY/WX    TMP DP  RH WIND       PRES   REMARKS
ALPINE         MOSUNNY   91  52  25 E8G17     30.20F
ANDREWS        FAIR      93  59  31 SE3       30.10S
ARTESIA        SUNNY     93  57  29 VRB6      30.11F
BIG SPRING     SUNNY     93  64  37 CALM      30.08F
CARLSBAD       SUNNY     93  56  28 MISG      30.08F
DRYDEN           N/A     96  65  35 SE9       29.99F
FORT STOCKTON  MOSUNNY   92  60  34 E14G20    30.06F
GUAD PASS      PTSUNNY   87  53  31 E25G31    30.24F
HOBBS          PTSUNNY   91  55  29 VRB5      30.13F
MARFA          NOT AVBL
MIDLAND AIRPK  SUNNY     96  58  27 E3        30.07F
MIDLAND INTL   SUNNY     96  59  29 E5G17     30.06F
ODESSA         MOSUNNY   94  60  32 SE9       30.07F
PECOS          MOSUNNY   97  58  27 E15G24    30.03F
PRESIDIO       FAIR      95  59  29 SE5       30.00F
SEMINOLE       PTSUNNY   93  57  29 SE3       30.11F
SNYDER           N/A     92  65  40 E6        30.06F
WINK           SUNNY     96  60  30 SE13G20   30.04F
$$
...OTHER STATIONS IN TEXAS...

CITY           SKY/WX    TMP DP  RH WIND       PRES   REMARKS
ABILENE        MOSUNNY   94  65  38 E9        30.02F
AMARILLO       SUNNY     92  60  34 NW10      30.14F
AUSTIN         MOSUNNY   96  72  45 SW7       29.94F HX 104
BROWNSVILLE    MOSUNNY   95  73  48 S16G24    29.91F HX 104
CORPUS CHRISTI PTSUNNY   94  74  52 SE6G17    29.91F HX 104
DALLAS FTW     CLOUDY    93  72  50 NE5       29.96F HX 101
DEL RIO        SUNNY     96  68  39 MISG      29.93F HX 101
EL PASO        MOSUNNY   97  48  18 E9        30.09F
HOUSTON INT    LGT RAIN  92  72  51 CALM      29.93F
LUBBOCK        MOSUNNY   96  59  29 N7        30.11F
SAN ANGELO     MOSUNNY   97  65  34 MISG      30.01F
SAN ANTONIO    MOSUNNY   92  69  47 S5        29.97F
WACO           MOSUNNY   98  69  38 VRB6      29.94F HX 104
WICHITA FALLS  NOT AVBL
$$
...OTHER LOCATIONS IN NEW MEXICO...

CITY           SKY/WX    TMP DP  RH WIND       PRES   REMARKS
ALAMAGORDO     SUNNY     91  54  27 SE7       30.13F
ALBUQUERQUE    MOSUNNY   88  49  25 CALM      30.25F
CANNON AFB     SUNNY     90  56  31 VRB2      30.18S
CLOVIS         SUNNY     90  57  33 CALM      30.18F
HOLLOMAN AFB   SUNNY     92  53  26 VRB3      30.11F
ROSWELL        SUNNY     93  54  26 CALM      30.12F
RUIDOSO          N/A     82  45  26 SE9G17    30.38F
SANTA FE       SUNNY     86  47  25 N6        30.32F
TRUTH OR CONSE SUNNY     89  53  29 VRB5      30.19F
TUCUMCARI      SUNNY     91  57  31 E7        30.16F
$$




USA.gov is the U.S. government's official web portal to all federal, state and local government web resources and services.